Flag for U.S.A. Weather past 2 weeks in Pasadena, Texas, U.S.A.

Now
70 °F

Fog.


Feels Like: 70 °F
Forecast: 53 / 62 °F
Wind: 6 mph from East

Location: Houston / Ellington

Current Time: Dec 18, 2014 at 6:07:33 PM

Latest Report: Dec 18, 2014 at 4:50 PM


Visibility: 5 mi

Pressure: 30.03 "Hg

Humidity: 94%

Dew point: 68 °F

Location of PasadenaLocation

Historic Weather in Pasadena — Graph

°F

Pasadena temperature yesterday

Maximum temperature yesterday: 64 °F (at 2:50 PM)
Minimum temperature yesterday: 48 °F (at 3:50 AM)
Average temperature yesterday: 56 °F

Past Weeks' High & Low Weather Summary

 TemperatureHumidityPressure
High81 °F (Dec 15, 1:50 PM)100% (Dec 4, 8:50 AM)30.37 "Hg (Dec 4, 8:50 AM)
Low48 °F (Dec 17, 3:50 AM)32% (Dec 16, 2:50 PM)29.94 "Hg (Dec 15, 4:50 AM)
Average63 °F79%30.19 "Hg
* Reported Dec 3 4:50 PM — Dec 18 4:50 PM, Pasadena, Weather by CustomWeather, © 2014

Note: Actual official high and low records may vary slightly from our data, if they occured in-between our weather recording intervals... More about our weather records

Advertising

Pasadena weather history for previous 24 hours

 ConditionsComfort  
Time TempWeatherWind HumidityBarometerVisibility
4:50 PM
Dec 18
70 °FFog.6 mph94%30.03 "Hg5 mi
3:50 PM70 °FFog.6 mph94%30.02 "Hg5 mi
2:50 PM70 °FFog.5 mph94%30.02 "Hg5 mi
1:50 PM70 °FFog.2 mph94%30.04 "Hg5 mi
12:50 PM68 °FFog.5 mph94%30.07 "Hg4 mi
11:50 AM68 °FFog.3 mph94%30.09 "Hg3 mi
10:50 AM64 °FLight rain. Mostly cloudy.6 mph100%30.12 "Hg3 mi
8:50 AM64 °FLight rain. Mostly cloudy.5 mph100%30.10 "Hg2 mi
7:50 AM64 °FLight rain. Mostly cloudy.5 mph100%30.08 "Hg2 mi
6:50 AM64 °FLight rain. Fog.5 mph88%30.07 "Hg2 mi
5:50 AM64 °FLight rain. Partly cloudy.3 mph88%30.05 "Hg5 mi
4:50 AM63 °FPartly cloudy.5 mph94%30.05 "Hg7 mi
3:50 AM63 °FPartly cloudy.5 mph94%30.06 "Hg7 mi
2:50 AM63 °FPartly cloudy.3 mph94%30.06 "Hg10 mi
1:50 AM63 °FPartly cloudy.5 mph94%30.07 "Hg10 mi
12:50 AM63 °FOvercast.5 mph94%30.10 "Hg10 mi
11:50 PM
Dec 17
63 °FLight rain. Partly cloudy.3 mph88%30.12 "Hg7 mi
10:50 PM63 °FLight rain. Passing clouds.8 mph94%30.12 "Hg7 mi
9:50 PM63 °FOvercast.5 mph88%30.12 "Hg10 mi
7:50 PM61 °FOvercast.12 mph88%30.12 "Hg10 mi
Weather by CustomWeather, © 2014

See weather overviewHow to use our weather pages